Buscar
  • Menú Principal
  • Est. Meteorològica
  • Mareògraf
  • Previsió
Les dades presentades són DEUMINUTALS

Data últim calibratge: ** PENDENT **

Estat: Darrera lectura: 23/05 21:30 Hora local
Velocitat del vent: 9,5 Km/h Ratxa màxima: 20,7 km/h
V.vent (nusos): 5,1 Nudos Dir. procedència: NE (53º)
Temp. De l'aire: 22 ºC Hum. rel.: 79,6 %
         
Rosa de vent (últimes 24 h i 7 dies previs a 23/05 21:30 Hora local )
Rosa 24 Horas Rosa 7 Días
Últimes 24 hores Últims 7 dies
Descripció de l'estació:
         
Posició de l'estació
Imagen estacion
TOTES LES DADES ESTAN EN HORA LOCAL
Data
Vel. vent. (Km/h)
Dir. vent (º)
Max. vent. (Km/h):
Temp. aire (º C)
Hum. relativa (%)
2022/05/23 21:309,55320,72279,6
2022/05/23 21:207,24122,62279,6
2022/05/23 21:109,7824,12279,5
2022/05/23 21:0010,36120,42279,7
2022/05/23 20:509,04520,72279,9
2022/05/23 20:409,94820,72279,8
2022/05/23 20:3012,110220,82279,6
2022/05/23 20:2011,97318,92279,5
2022/05/23 20:1010,86820,32279,3
2022/05/23 20:0013,16822,02278,9
2022/05/23 19:5012,58618,82278,6
2022/05/23 19:4010,86423,82278,6
2022/05/23 19:309,67221,12278,5
2022/05/23 19:2011,19518,92278,4
2022/05/23 19:1013,010019,32278,3
2022/05/23 19:0010,78018,62278,1
2022/05/23 18:5010,99918,12278,0
2022/05/23 18:4014,37120,72278,6
2022/05/23 18:3015,38922,82278,7
2022/05/23 18:2017,38024,72278,5
2022/05/23 18:1016,17524,02278,2
2022/05/23 18:0015,98524,62377,2
2022/05/23 17:5012,98626,52376,5
2022/05/23 17:4011,99724,72376,0
Página 1 de 29 (694 Datos)< Prev1234567272829Next >
TOTES LES DADES ESTAN EN HORA LOCAL
Data
Vel. vent. (Km/h)
Dir. vent (º)
Max. vent. (Km/h):
Temp. aire (º C)
Hum. relativa (%)
2022/05/23 21:009,25321,92279,6
2022/05/23 20:0011,14520,62279,5
2022/05/23 19:0011,38620,12278,4
2022/05/23 18:0015,09922,52278,2
2022/05/23 17:0012,58624,82376,3
2022/05/23 16:0015,335929,02377,5
2022/05/23 15:0019,07632,22379,8
2022/05/23 14:0018,37131,82380,4
2022/05/23 13:0014,35429,72379,7
2022/05/23 12:0012,64726,92375,6
2022/05/23 11:0014,47830,22746,0
2022/05/23 10:0016,625233,82739,5
2022/05/23 09:0011,627124,62452,2
2022/05/23 08:003,4357,52068,3
2022/05/23 07:004,02658,31872,9
2022/05/23 06:006,626410,11873,4
2022/05/23 05:003,22625,81975,3
2022/05/23 04:003,02596,52077,1
2022/05/23 03:005,115211,62179,7
2022/05/23 02:005,26711,22179,3
2022/05/23 01:004,0478,42277,0
2022/05/23 00:003,23277,82277,4
2022/05/22 23:003,11017,52283,4
2022/05/22 22:004,0396,92383,2
Página 1 de 5 (116 Datos)< Prev12345Next >
TOTES LES DADES ESTAN EN HORA LOCAL
Data
Vel. vent. (Km/h)
Dir. vent (º)
Max. vent. (Km/h):
Temp. aire (º C)
Hum. relativa (%)
2022/05/23 00:0010,65320,42272,3
2022/05/22 00:007,34712,02274,2
2022/05/21 00:008,422014,02263,1
2022/05/20 00:005,628210,02264,8
2022/05/19 00:008,628115,82179,8
TOTES LES DADES ESTAN EN HORA LOCAL
Les dades presentades són DEUMINUTALS
48 Hores
24 Hores
12 Hores
6 Hores
3 Hores

The Velocitat del vent (km/h) chart showing Velocitat del vent (km/h) series.

The Direcció vent (º) chart showing Direcció vent (º) series.


The Temperatura (º) chart showing Temperatura (º) series.